^^
Station Historical Data
Daily Summary for July 17, 2021 Units:  English    Metric   Both
Daily Weekly Monthly Yearly
  High: Low: Average:
Temperature: 74.6 °F 66.2 °F 70.2 °F
Dew Point: 65.5 °F 60.5 °F 62.7 °F
Humidity: 87% 66% 77%
Wind Speed: 4mph 0mph 2.3mph
Wind Gust: 8mph - -
Wind- - East
Pressure: 30.09 in 30.00 in -
Precipitation: 0.00 in    
 
 
Tabular Data for July 17, 2021
Time Temperature Dew Point Pressure Wind Wind Speed Wind Gust Humidity Rainfall Rate (Hourly) solar
00:00 67.6 °F 60.9 °F 30.01 in NE 2 mph 2 mph 79% 0.00 in 0 W/m2
00:05 67.5 °F 60.8 °F 30.01 in East 2 mph 2 mph 79% 0.00 in 0 W/m2
00:10 67.5 °F 60.8 °F 30.01 in ENE 2 mph 5 mph 79% 0.00 in 0 W/m2
00:15 67.5 °F 60.8 °F 30.01 in ENE 2 mph 5 mph 79% 0.00 in 0 W/m2
00:20 67.4 °F 60.7 °F 30.02 in ENE 2 mph 2 mph 79% 0.00 in 0 W/m2
00:25 67.4 °F 60.7 °F 30.01 in ENE 2 mph 2 mph 79% 0.00 in 0 W/m2
00:30 67.4 °F 61 °F 30.01 in ENE 2 mph 6 mph 80% 0.00 in 0 W/m2
00:35 67.4 °F 61 °F 30.01 in NNE 2 mph 6 mph 80% 0.00 in 0 W/m2
00:40 67.4 °F 61 °F 30.01 in NE 2 mph 2 mph 80% 0.00 in 0 W/m2
00:45 67.4 °F 61 °F 30.01 in ESE 2 mph 3 mph 80% 0.00 in 0 W/m2
00:50 67.4 °F 61 °F 30.01 in NNE 2 mph 2 mph 80% 0.00 in 0 W/m2
00:55 67.4 °F 61.4 °F 30.01 in North 2 mph 2 mph 81% 0.00 in 0 W/m2
01:00 67.3 °F 61.3 °F 30.01 in SE 2 mph 3 mph 81% 0.00 in 0 W/m2
01:05 67.3 °F 61.3 °F 30.01 in NE 2 mph 3 mph 81% 0.00 in 0 W/m2
01:10 67.3 °F 61.3 °F 30.01 in ENE 2 mph 4 mph 81% 0.00 in 0 W/m2
01:15 67.2 °F 61.5 °F 30.01 in East 2 mph 4 mph 82% 0.00 in 0 W/m2
01:20 67.2 °F 61.5 °F 30.01 in ENE 2 mph 3 mph 82% 0.00 in 0 W/m2
01:25 67.2 °F 61.5 °F 30.00 in NNE 2 mph 3 mph 82% 0.00 in 0 W/m2
01:30 67.1 °F 61.4 °F 30.00 in East 2 mph 3 mph 82% 0.00 in 0 W/m2
01:35 67.1 °F 61.8 °F 30.00 in NE 2 mph 3 mph 83% 0.00 in 0 W/m2
01:40 67 °F 61.7 °F 30.00 in NNE 2 mph 3 mph 83% 0.00 in 0 W/m2
01:45 67 °F 61.7 °F 30.00 in ENE 2 mph 3 mph 83% 0.00 in 0 W/m2
01:50 67 °F 61.7 °F 30.00 in ENE 2 mph 2 mph 83% 0.00 in 0 W/m2
01:55 67 °F 61.7 °F 30.00 in East 2 mph 2 mph 83% 0.00 in 0 W/m2
02:00 67 °F 61.7 °F 30.00 in ENE 2 mph 3 mph 83% 0.00 in 0 W/m2
02:05 66.9 °F 61.6 °F 30.00 in NE 2 mph 3 mph 83% 0.00 in 0 W/m2
02:10 66.9 °F 61.6 °F 30.00 in NE 2 mph 4 mph 83% 0.00 in 0 W/m2
02:15 66.9 °F 61.6 °F 30.00 in ENE 2 mph 4 mph 83% 0.00 in 0 W/m2
02:20 66.9 °F 61.6 °F 30.00 in NNW 2 mph 2 mph 83% 0.00 in 0 W/m2
02:25 66.8 °F 61.8 °F 30.00 in East 2 mph 3 mph 84% 0.00 in 0 W/m2
02:30 66.8 °F 61.8 °F 30.00 in East 2 mph 2 mph 84% 0.00 in 0 W/m2
02:35 66.8 °F 61.8 °F 30.00 in ENE 2 mph 2 mph 84% 0.00 in 0 W/m2
02:40 66.8 °F 61.8 °F 30.00 in ENE 2 mph 2 mph 84% 0.00 in 0 W/m2
02:45 66.8 °F 61.8 °F 30.00 in East 2 mph 6 mph 84% 0.00 in 0 W/m2
02:50 66.8 °F 61.8 °F 30.00 in North 2 mph 3 mph 84% 0.00 in 0 W/m2
02:55 66.7 °F 61.7 °F 30.00 in NE 2 mph 3 mph 84% 0.00 in 0 W/m2
03:00 66.7 °F 61.7 °F 30.00 in NE 2 mph 5 mph 84% 0.00 in 0 W/m2
03:05 66.7 °F 61.7 °F 30.00 in NE 2 mph 5 mph 84% 0.00 in 0 W/m2
03:10 66.7 °F 61.7 °F 30.00 in NE 2 mph 5 mph 84% 0.00 in 0 W/m2
03:15 66.7 °F 61.7 °F 30.00 in ENE 2 mph 5 mph 84% 0.00 in 0 W/m2
03:20 66.7 °F 61.7 °F 30.00 in NNE 2 mph 2 mph 84% 0.00 in 0 W/m2
03:25 66.7 °F 61.7 °F 30.00 in East 2 mph 2 mph 84% 0.00 in 0 W/m2
03:30 66.7 °F 61.7 °F 30.00 in NE 2 mph 2 mph 84% 0.00 in 0 W/m2
03:35 66.7 °F 61.7 °F 30.00 in ENE 2 mph 2 mph 84% 0.00 in 0 W/m2
03:40 66.6 °F 61.6 °F 30.00 in East 2 mph 2 mph 84% 0.00 in 0 W/m2
03:45 66.6 °F 61.6 °F 30.00 in NE 2 mph 3 mph 84% 0.00 in 0 W/m2
03:50 66.6 °F 61.9 °F 30.00 in ESE 2 mph 3 mph 85% 0.00 in 0 W/m2
03:55 66.6 °F 61.9 °F 30.00 in NNE 2 mph 3 mph 85% 0.00 in 0 W/m2
04:00 66.5 °F 61.8 °F 30.00 in ENE 2 mph 2 mph 85% 0.00 in 0 W/m2
04:05 66.5 °F 61.8 °F 30.00 in East 2 mph 2 mph 85% 0.00 in 0 W/m2
04:10 66.5 °F 61.8 °F 30.00 in ENE 2 mph 2 mph 85% 0.00 in 0 W/m2
04:15 66.4 °F 61.8 °F 30.00 in ENE 2 mph 2 mph 85% 0.00 in 0 W/m2
04:20 66.4 °F 61.8 °F 30.00 in NE 2 mph 2 mph 85% 0.00 in 0 W/m2
04:25 66.3 °F 61.7 °F 30.00 in East 2 mph 4 mph 85% 0.00 in 0 W/m2
04:30 66.3 °F 61.7 °F 30.00 in NNE 2 mph 2 mph 85% 0.00 in 0 W/m2
04:35 66.3 °F 62 °F 30.01 in East 2 mph 2 mph 86% 0.00 in 0 W/m2
04:40 66.3 °F 62 °F 30.00 in ENE 2 mph 2 mph 86% 0.00 in 0 W/m2
04:45 66.3 °F 62 °F 30.00 in ESE 2 mph 3 mph 86% 0.00 in 0 W/m2
04:50 66.3 °F 62 °F 30.00 in SE 2 mph 2 mph 86% 0.00 in 0 W/m2
04:55 66.3 °F 62 °F 30.00 in NW 2 mph 2 mph 86% 0.00 in 0 W/m2
05:00 66.3 °F 62 °F 30.01 in ENE 2 mph 4 mph 86% 0.00 in 0 W/m2
05:05 66.3 °F 62 °F 30.01 in ENE 2 mph 4 mph 86% 0.00 in 0 W/m2
05:10 66.3 °F 62 °F 30.01 in ENE 2 mph 4 mph 86% 0.00 in 0 W/m2
05:15 66.3 °F 62 °F 30.01 in ENE 3 mph 4 mph 86% 0.00 in 0 W/m2
05:20 66.3 °F 62 °F 30.01 in NE 2 mph 2 mph 86% 0.00 in 0 W/m2
05:25 66.3 °F 62 °F 30.01 in East 2 mph 2 mph 86% 0.00 in 0 W/m2
05:30 66.3 °F 62 °F 30.01 in NE 2 mph 3 mph 86% 0.00 in 0 W/m2
05:35 66.2 °F 61.9 °F 30.01 in East 2 mph 3 mph 86% 0.00 in 0 W/m2
05:40 66.3 °F 62 °F 30.01 in ENE 2 mph 2 mph 86% 0.00 in 0 W/m2
05:45 66.3 °F 62.3 °F 30.01 in NE 2 mph 2 mph 87% 0.00 in 0 W/m2
05:50 66.3 °F 62.3 °F 30.01 in NW 2 mph 2 mph 87% 0.00 in 0 W/m2
05:55 66.3 °F 62.3 °F 30.01 in ENE 2 mph 2 mph 87% 0.00 in 0 W/m2
06:00 66.3 °F 62.3 °F 30.01 in NNE 2 mph 2 mph 87% 0.00 in 0 W/m2
06:05 66.3 °F 62.3 °F 30.02 in NE 2 mph 2 mph 87% 0.00 in 0 W/m2
06:10 66.3 °F 62.3 °F 30.02 in ENE 2 mph 2 mph 87% 0.00 in 0 W/m2
06:15 66.3 °F 62.3 °F 30.02 in ENE 2 mph 3 mph 87% 0.00 in 0 W/m2
06:20 66.3 °F 62.3 °F 30.02 in NE 3 mph 3 mph 87% 0.00 in 5 W/m2
06:25 66.4 °F 62.4 °F 30.02 in ENE 3 mph 4 mph 87% 0.00 in 9 W/m2
06:30 66.4 °F 62.4 °F 30.02 in ESE 3 mph 3 mph 87% 0.00 in 12 W/m2
06:35 66.4 °F 62.4 °F 30.02 in East 3 mph 3 mph 87% 0.00 in 18 W/m2
06:40 66.4 °F 62.4 °F 30.03 in East 3 mph 3 mph 87% 0.00 in 23 W/m2
06:45 66.4 °F 62.4 °F 30.03 in ENE 2 mph 4 mph 87% 0.00 in 26 W/m2
06:50 66.4 °F 62.4 °F 30.03 in ENE 3 mph 3 mph 87% 0.00 in 30 W/m2
06:55 66.4 °F 62.4 °F 30.03 in ESE 3 mph 4 mph 87% 0.00 in 33 W/m2
07:00 66.4 °F 62.1 °F 30.03 in ESE 3 mph 3 mph 86% 0.00 in 35 W/m2
07:05 66.4 °F 62.1 °F 30.03 in NE 2 mph 5 mph 86% 0.00 in 35 W/m2
07:10 66.3 °F 62 °F 30.04 in East 2 mph 2 mph 86% 0.00 in 53 W/m2
07:15 66.4 °F 62.1 °F 30.04 in East 3 mph 5 mph 86% 0.00 in 65 W/m2
07:20 66.4 °F 61.8 °F 30.04 in East 2 mph 4 mph 85% 0.00 in 60 W/m2
07:25 66.5 °F 61.8 °F 30.04 in NE 2 mph 4 mph 85% 0.00 in 56 W/m2
07:30 66.5 °F 61.5 °F 30.04 in East 2 mph 2 mph 84% 0.00 in 60 W/m2
07:35 66.6 °F 61.6 °F 30.04 in ENE 2 mph 3 mph 84% 0.00 in 63 W/m2
07:40 66.6 °F 61.3 °F 30.04 in East 3 mph 3 mph 83% 0.00 in 69 W/m2
07:45 66.7 °F 61 °F 30.05 in NE 3 mph 3 mph 82% 0.00 in 83 W/m2
07:50 66.8 °F 60.8 °F 30.05 in East 3 mph 4 mph 81% 0.00 in 93 W/m2
07:55 66.9 °F 60.5 °F 30.05 in ENE 3 mph 4 mph 80% 0.00 in 95 W/m2
08:00 67.1 °F 60.7 °F 30.05 in ENE 3 mph 3 mph 80% 0.00 in 98 W/m2
08:05 67.3 °F 60.9 °F 30.05 in East 3 mph 3 mph 80% 0.00 in 102 W/m2
08:10 67.4 °F 61 °F 30.05 in NE 3 mph 3 mph 80% 0.00 in 113 W/m2
08:15 67.5 °F 60.8 °F 30.05 in NNW 3 mph 3 mph 79% 0.00 in 137 W/m2
08:20 67.7 °F 61.3 °F 30.05 in NE 3 mph 3 mph 80% 0.00 in 178 W/m2
08:25 67.8 °F 61 °F 30.05 in ESE 3 mph 3 mph 79% 0.00 in 148 W/m2
08:30 68 °F 60.9 °F 30.05 in East 3 mph 4 mph 78% 0.00 in 216 W/m2
08:35 68.2 °F 61.4 °F 30.05 in NNE 2 mph 4 mph 79% 0.00 in 288 W/m2
08:40 68.5 °F 62.1 °F 30.05 in ESE 2 mph 2 mph 80% 0.00 in 397 W/m2
08:45 68.7 °F 62.6 °F 30.05 in NE 2 mph 5 mph 81% 0.00 in 385 W/m2
08:50 68.9 °F 62.5 °F 30.05 in NE 3 mph 5 mph 80% 0.00 in 371 W/m2
08:55 69.2 °F 62.4 °F 30.05 in NNW 3 mph 5 mph 79% 0.00 in 374 W/m2
09:00 69.3 °F 62.5 °F 30.06 in NE 3 mph 3 mph 79% 0.00 in 390 W/m2
09:05 69.4 °F 62.2 °F 30.06 in NNE 3 mph 3 mph 78% 0.00 in 403 W/m2
09:10 69.5 °F 62.3 °F 30.06 in East 2 mph 2 mph 78% 0.00 in 418 W/m2
09:15 69.6 °F 62.4 °F 30.06 in SE 2 mph 3 mph 78% 0.00 in 434 W/m2
09:20 69.7 °F 62.2 °F 30.06 in ENE 2 mph 2 mph 77% 0.00 in 452 W/m2
09:25 69.9 °F 62.4 °F 30.06 in ENE 3 mph 3 mph 77% 0.00 in 468 W/m2
09:30 70 °F 62.5 °F 30.07 in ENE 2 mph 3 mph 77% 0.00 in 496 W/m2
09:35 70.2 °F 62.6 °F 30.07 in NNE 2 mph 3 mph 77% 0.00 in 541 W/m2
09:40 70.4 °F 62.5 °F 30.07 in ENE 2 mph 3 mph 76% 0.00 in 450 W/m2
09:45 70.5 °F 62.6 °F 30.06 in ENE 2 mph 3 mph 76% 0.00 in 309 W/m2
09:50 70.6 °F 62.7 °F 30.07 in NE 2 mph 5 mph 76% 0.00 in 390 W/m2
09:55 70.8 °F 62.5 °F 30.07 in North 3 mph 5 mph 75% 0.00 in 554 W/m2
10:00 70.8 °F 62.5 °F 30.07 in ESE 3 mph 3 mph 75% 0.00 in 578 W/m2
10:05 70.9 °F 62.2 °F 30.07 in NE 3 mph 3 mph 74% 0.00 in 570 W/m2
10:10 71 °F 62.7 °F 30.07 in East 3 mph 8 mph 75% 0.00 in 585 W/m2
10:15 71 °F 62.3 °F 30.07 in WNW 3 mph 8 mph 74% 0.00 in 606 W/m2
10:20 71.1 °F 62 °F 30.07 in East 3 mph 3 mph 73% 0.00 in 645 W/m2
10:25 71.2 °F 62.5 °F 30.07 in SW 3 mph 3 mph 74% 0.00 in 698 W/m2
10:30 71.4 °F 62.3 °F 30.08 in NNW 3 mph 3 mph 73% 0.00 in 475 W/m2
10:35 71.4 °F 62.3 °F 30.08 in NNW 3 mph 3 mph 73% 0.00 in 461 W/m2
10:40 71.5 °F 62.8 °F 30.08 in NE 3 mph 5 mph 74% 0.00 in 664 W/m2
10:45 71.3 °F 62.2 °F 30.08 in East 3 mph 5 mph 73% 0.00 in 543 W/m2
10:50 71.3 °F 62.2 °F 30.08 in NNW 4 mph 4 mph 73% 0.00 in 737 W/m2
10:55 71.3 °F 63 °F 30.08 in ENE 3 mph 4 mph 75% 0.00 in 714 W/m2
11:00 71.3 °F 62.6 °F 30.08 in NE 3 mph 3 mph 74% 0.00 in 719 W/m2
11:05 71.5 °F 63.2 °F 30.08 in NW 3 mph 3 mph 75% 0.00 in 722 W/m2
11:10 71.5 °F 63.2 °F 30.08 in ENE 3 mph 3 mph 75% 0.00 in 726 W/m2
11:15 71.7 °F 63.4 °F 30.08 in East 3 mph 3 mph 75% 0.00 in 728 W/m2
11:20 71.6 °F 62.9 °F 30.08 in NW 3 mph 3 mph 74% 0.00 in 737 W/m2
11:25 71.8 °F 63.4 °F 30.09 in West 3 mph 3 mph 75% 0.00 in 747 W/m2
11:30 71.9 °F 63.2 °F 30.09 in East 3 mph 3 mph 74% 0.00 in 763 W/m2
11:35 71.9 °F 63.2 °F 30.09 in NE 3 mph 3 mph 74% 0.00 in 779 W/m2
11:40 72 °F 63.6 °F 30.09 in North 3 mph 3 mph 75% 0.00 in 717 W/m2
11:45 72 °F 63.6 °F 30.08 in ENE 3 mph 7 mph 75% 0.00 in 773 W/m2
11:50 71.9 °F 63.9 °F 30.08 in NE 3 mph 5 mph 76% 0.00 in 772 W/m2
11:55 72 °F 64 °F 30.08 in North 3 mph 5 mph 76% 0.00 in 773 W/m2
12:00 72 °F 64.4 °F 30.09 in NE 3 mph 5 mph 77% 0.00 in 784 W/m2
12:05 72.1 °F 64.1 °F 30.08 in SE 3 mph 5 mph 76% 0.00 in 786 W/m2
12:10 72.2 °F 64.6 °F 30.08 in North 3 mph 5 mph 77% 0.00 in 789 W/m2
12:15 72.3 °F 63.9 °F 30.08 in NW 3 mph 8 mph 75% 0.00 in 789 W/m2
12:20 72.5 °F 64.5 °F 30.08 in NNE 3 mph 3 mph 76% 0.00 in 784 W/m2
12:25 72.6 °F 64.6 °F 30.09 in NNW 3 mph 3 mph 76% 0.00 in 793 W/m2
12:30 72.6 °F 64.2 °F 30.09 in NNE 3 mph 6 mph 75% 0.00 in 796 W/m2
12:35 72.5 °F 64.1 °F 30.09 in ESE 3 mph 6 mph 75% 0.00 in 800 W/m2
12:40 72.5 °F 64.1 °F 30.09 in NNE 3 mph 4 mph 75% 0.00 in 805 W/m2
12:45 72.3 °F 64.3 °F 30.09 in NNE 4 mph 4 mph 76% 0.00 in 807 W/m2
12:50 72.6 °F 64.6 °F 30.09 in NNE 3 mph 3 mph 76% 0.00 in 798 W/m2
12:55 72.8 °F 64.4 °F 30.09 in NE 3 mph 3 mph 75% 0.00 in 796 W/m2
13:00 72.7 °F 64.3 °F 30.09 in SSW 3 mph 3 mph 75% 0.00 in 800 W/m2
13:05 72.4 °F 64.4 °F 30.09 in NE 3 mph 3 mph 76% 0.00 in 800 W/m2
13:10 72.3 °F 64.7 °F 30.09 in NE 4 mph 4 mph 77% 0.00 in 807 W/m2
13:15 72.3 °F 65.1 °F 30.09 in NE 3 mph 4 mph 78% 0.00 in 809 W/m2
13:20 72.8 °F 65.5 °F 30.09 in NE 3 mph 3 mph 78% 0.00 in 814 W/m2
13:25 72.8 °F 64.8 °F 30.09 in West 3 mph 3 mph 76% 0.00 in 812 W/m2
13:30 72.5 °F 64.5 °F 30.09 in ENE 3 mph 3 mph 76% 0.00 in 814 W/m2
13:35 72.7 °F 65.4 °F 30.09 in NE 3 mph 4 mph 78% 0.00 in 824 W/m2
13:40 73.2 °F 65.2 °F 30.09 in North 3 mph 3 mph 76% 0.00 in 824 W/m2
13:45 73.5 °F 65.1 °F 30.09 in NNW 3 mph 3 mph 75% 0.00 in 828 W/m2
13:50 73 °F 64.6 °F 30.09 in NNW 3 mph 6 mph 75% 0.00 in 819 W/m2
13:55 72.8 °F 64.8 °F 30.09 in North 3 mph 6 mph 76% 0.00 in 826 W/m2
14:00 72.9 °F 64.9 °F 30.09 in NE 3 mph 4 mph 76% 0.00 in 838 W/m2
14:05 73 °F 64.6 °F 30.09 in West 3 mph 4 mph 75% 0.00 in 844 W/m2
14:10 72.8 °F 64.8 °F 30.09 in NNE 3 mph 4 mph 76% 0.00 in 858 W/m2
14:15 72.8 °F 64.8 °F 30.09 in ESE 3 mph 4 mph 76% 0.00 in 847 W/m2
14:20 72.9 °F 64.5 °F 30.08 in East 3 mph 3 mph 75% 0.00 in 846 W/m2
14:25 73.2 °F 64.8 °F 30.08 in ESE 3 mph 3 mph 75% 0.00 in 844 W/m2
14:30 73.4 °F 65 °F 30.08 in NE 2 mph 2 mph 75% 0.00 in 842 W/m2
14:35 73.4 °F 64.6 °F 30.09 in ESE 3 mph 3 mph 74% 0.00 in 846 W/m2
14:40 73.5 °F 64.7 °F 30.09 in SSE 3 mph 3 mph 74% 0.00 in 844 W/m2
14:45 73.5 °F 64.7 °F 30.09 in North 3 mph 4 mph 74% 0.00 in 835 W/m2
14:50 73.6 °F 65.2 °F 30.09 in NNE 2 mph 4 mph 75% 0.00 in 831 W/m2
14:55 73.7 °F 64.9 °F 30.09 in East 3 mph 4 mph 74% 0.00 in 828 W/m2
15:00 73.8 °F 65 °F 30.09 in ENE 3 mph 3 mph 74% 0.00 in 821 W/m2
15:05 73.9 °F 65.1 °F 30.09 in NNW 2 mph 6 mph 74% 0.00 in 814 W/m2
15:10 73.9 °F 65.1 °F 30.09 in East 3 mph 3 mph 74% 0.00 in 807 W/m2
15:15 73.9 °F 64.7 °F 30.09 in NNE 3 mph 3 mph 73% 0.00 in 800 W/m2
15:20 73.8 °F 64.6 °F 30.09 in ENE 3 mph 7 mph 73% 0.00 in 795 W/m2
15:25 73.7 °F 64.5 °F 30.09 in South 3 mph 7 mph 73% 0.00 in 786 W/m2
15:30 73.6 °F 64.8 °F 30.08 in NE 3 mph 6 mph 74% 0.00 in 777 W/m2
15:35 73.4 °F 64.2 °F 30.09 in East 3 mph 6 mph 73% 0.00 in 768 W/m2
15:40 73.4 °F 64.6 °F 30.09 in SSE 3 mph 3 mph 74% 0.00 in 763 W/m2
15:45 73.4 °F 64.6 °F 30.09 in NE 3 mph 4 mph 74% 0.00 in 754 W/m2
15:50 73.4 °F 64.6 °F 30.09 in ESE 3 mph 3 mph 74% 0.00 in 749 W/m2
15:55 73.4 °F 64.6 °F 30.09 in ENE 3 mph 3 mph 74% 0.00 in 742 W/m2
16:00 73.4 °F 65 °F 30.09 in ESE 3 mph 3 mph 75% 0.00 in 731 W/m2
16:05 73.5 °F 64.3 °F 30.09 in East 3 mph 7 mph 73% 0.00 in 717 W/m2
16:10 73.6 °F 64.4 °F 30.09 in ENE 3 mph 3 mph 73% 0.00 in 703 W/m2
16:15 73.8 °F 65 °F 30.09 in NE 3 mph 3 mph 74% 0.00 in 689 W/m2
16:20 73.9 °F 64.7 °F 30.09 in East 3 mph 3 mph 73% 0.00 in 684 W/m2
16:25 74.1 °F 64.9 °F 30.09 in NE 3 mph 3 mph 73% 0.00 in 682 W/m2
16:30 74.2 °F 64.6 °F 30.09 in East 2 mph 2 mph 72% 0.00 in 671 W/m2
16:35 74.3 °F 64.7 °F 30.09 in NE 2 mph 2 mph 72% 0.00 in 657 W/m2
16:40 74.3 °F 64.3 °F 30.09 in SE 2 mph 2 mph 71% 0.00 in 647 W/m2
16:45 74.4 °F 64.4 °F 30.09 in SW 3 mph 5 mph 71% 0.00 in 638 W/m2
16:50 74.5 °F 64.5 °F 30.09 in East 3 mph 3 mph 71% 0.00 in 626 W/m2
16:55 74.5 °F 64.1 °F 30.08 in WNW 2 mph 3 mph 70% 0.00 in 617 W/m2
17:00 74.6 °F 63.8 °F 30.09 in ENE 2 mph 2 mph 69% 0.00 in 599 W/m2
17:05 74.6 °F 63.3 °F 30.09 in East 2 mph 3 mph 68% 0.00 in 582 W/m2
17:10 74.5 °F 63.2 °F 30.09 in NE 2 mph 2 mph 68% 0.00 in 566 W/m2
17:15 74.5 °F 63.2 °F 30.09 in SSE 2 mph 2 mph 68% 0.00 in 552 W/m2
17:20 74.4 °F 63.6 °F 30.09 in SE 2 mph 3 mph 69% 0.00 in 545 W/m2
17:25 74.3 °F 62.6 °F 30.09 in NE 2 mph 3 mph 67% 0.00 in 534 W/m2
17:30 74.3 °F 63.1 °F 30.09 in North 2 mph 3 mph 68% 0.00 in 520 W/m2
17:35 74.2 °F 62.5 °F 30.09 in NE 2 mph 3 mph 67% 0.00 in 515 W/m2
17:40 74.2 °F 63 °F 30.09 in NE 2 mph 2 mph 68% 0.00 in 504 W/m2
17:45 74.2 °F 63 °F 30.09 in NNW 2 mph 2 mph 68% 0.00 in 492 W/m2
17:50 74.2 °F 62.5 °F 30.09 in NE 2 mph 3 mph 67% 0.00 in 475 W/m2
17:55 74.3 °F 62.6 °F 30.09 in NNW 2 mph 3 mph 67% 0.00 in 461 W/m2
18:00 74.2 °F 62.5 °F 30.09 in ESE 2 mph 4 mph 67% 0.00 in 454 W/m2
18:05 74.1 °F 62.9 °F 30.09 in NNW 2 mph 4 mph 68% 0.00 in 438 W/m2
18:10 74.1 °F 62.4 °F 30.09 in NNE 2 mph 2 mph 67% 0.00 in 418 W/m2
18:15 74.1 °F 62.9 °F 30.09 in NE 2 mph 2 mph 68% 0.00 in 406 W/m2
18:20 74.2 °F 62.5 °F 30.09 in WNW 2 mph 2 mph 67% 0.00 in 394 W/m2
18:25 74.1 °F 62 °F 30.08 in North 3 mph 3 mph 66% 0.00 in 371 W/m2
18:30 74.1 °F 62.4 °F 30.09 in East 2 mph 2 mph 67% 0.00 in 353 W/m2
18:35 74.1 °F 62.4 °F 30.09 in North 2 mph 2 mph 67% 0.00 in 336 W/m2
18:40 74 °F 62.8 °F 30.09 in NE 2 mph 2 mph 68% 0.00 in 318 W/m2
18:45 74 °F 62.8 °F 30.09 in East 1 mph 2 mph 68% 0.00 in 309 W/m2
18:50 74 °F 62.3 °F 30.08 in East 1 mph 1 mph 67% 0.00 in 292 W/m2
18:55 73.9 °F 62.2 °F 30.08 in ENE 2 mph 3 mph 67% 0.00 in 272 W/m2
19:00 73.7 °F 62.1 °F 30.08 in ENE 2 mph 2 mph 67% 0.00 in 248 W/m2
19:05 73.6 °F 62.4 °F 30.08 in West 2 mph 2 mph 68% 0.00 in 239 W/m2
19:10 73.6 °F 62.4 °F 30.08 in ESE 2 mph 2 mph 68% 0.00 in 230 W/m2
19:15 73.3 °F 61.7 °F 30.08 in ENE 1 mph 2 mph 67% 0.00 in 211 W/m2
19:20 73.2 °F 61.6 °F 30.08 in ENE 1 mph 1 mph 67% 0.00 in 197 W/m2
19:25 73.1 °F 61.5 °F 30.09 in NE 1 mph 1 mph 67% 0.00 in 185 W/m2
19:30 73 °F 61.8 °F 30.09 in NE 1 mph 1 mph 68% 0.00 in 165 W/m2
19:35 72.9 °F 61.7 °F 30.09 in NE 1 mph 1 mph 68% 0.00 in 151 W/m2
19:40 72.8 °F 62 °F 30.09 in ESE 1 mph 1 mph 69% 0.00 in 146 W/m2
19:45 72.8 °F 61.6 °F 30.09 in ENE 1 mph 4 mph 68% 0.00 in 137 W/m2
19:50 72.6 °F 61.4 °F 30.09 in ENE 2 mph 2 mph 68% 0.00 in 125 W/m2
19:55 72.6 °F 61.4 °F 30.09 in ENE 2 mph 2 mph 68% 0.00 in 114 W/m2
20:00 72.4 °F 62.1 °F 30.09 in East 1 mph 1 mph 70% 0.00 in 105 W/m2
20:05 72.4 °F 62.1 °F 30.09 in North 1 mph 1 mph 70% 0.00 in 93 W/m2
20:10 72.3 °F 62 °F 30.09 in ENE 1 mph 4 mph 70% 0.00 in 63 W/m2
20:15 72.2 °F 61.9 °F 30.09 in ENE 1 mph 4 mph 70% 0.00 in 56 W/m2
20:20 72.1 °F 62.2 °F 30.09 in ENE 1 mph 1 mph 71% 0.00 in 51 W/m2
20:25 72 °F 62.1 °F 30.09 in North 1 mph 1 mph 71% 0.00 in 44 W/m2
20:30 72 °F 62.5 °F 30.09 in Calm   1 mph 72% 0.00 in 39 W/m2
20:35 71.9 °F 62.4 °F 30.09 in Calm   1 mph 72% 0.00 in 33 W/m2
20:40 71.8 °F 62.3 °F 30.09 in North 1 mph 1 mph 72% 0.00 in 28 W/m2
20:45 71.7 °F 62.2 °F 30.09 in NNE 1 mph 1 mph 72% 0.00 in 23 W/m2
20:50 71.6 °F 62.5 °F 30.09 in Calm   1 mph 73% 0.00 in 18 W/m2
20:55 71.5 °F 62.4 °F 30.09 in Calm   1 mph 73% 0.00 in 16 W/m2
21:00 71.4 °F 62.7 °F 30.09 in Calm     74% 0.00 in 11 W/m2
21:05 71.3 °F 62.2 °F 30.09 in Calm     73% 0.00 in 9 W/m2
21:10 71.2 °F 62.1 °F 30.09 in Calm     73% 0.00 in 5 W/m2
21:15 71.1 °F 62.4 °F 30.09 in Calm   1 mph 74% 0.00 in 0 W/m2
21:20 71 °F 62.3 °F 30.09 in East 1 mph 1 mph 74% 0.00 in 0 W/m2
21:25 70.8 °F 62.1 °F 30.09 in NE 1 mph 1 mph 74% 0.00 in 0 W/m2
Sand Point, Michigan, USA
Compliments of Weather Underground - 2 mb